SCP
5 4 2 1 1 0 0 0 0 0 0 0 0 0 0 0 0 0 0 0 0 0 0 1 1 1 1 1 1 1 1 1 1 1 1 1 0 0 0 0 1 1 1 1 1 1 1 1 1
4 3 2 1 1 0 0 0 0 0 0 0 0 0 0 0 0 0 0 0 0 0 0 1 1 1 1 1 1 1 1 1 1 1 1 1 1 1 1 1 1 1 1 1 1 1 1 1 1
3 3 2 1 1 0 0 0 0 0 0 0 0 0 0 0 0 0 0 0 0 0 0 1 1 1 1 1 1 1 1 1 1 1 1 1 1 1 1 1 1 1 1 1 1 1 1 1 1
2 2 1 1 0 0 0 0 0 0 0 0 0 0 0 0 0 0 0 1 0 0 0 1 1 1 1 1 1 1 1 1 1 1 1 1 1 1 1 1 1 1 1 1 1 1 1 1 1
2 1 1 0 0 0 0 0 1 0 0 0 0 1 1 1 1 1 1 1 1 0 0 1 1 1 1 1 1 1 1 0 0 1 1 1 1 1 1 1 1 1 1 1 1 1 0 0 0
1 1 1 0 0 0 1 1 1 1 0 0 0 1 1 1 1 1 1 1 1 0 0 1 1 2 1 1 1 1 1 1 1 1 1 1 1 1 1 1 1 1 1 1 0 0 0 0 0
2 1 0 0 0 1 1 1 1 1 0 0 0 0 1 1 1 1 1 1 1 1 0 1 1 1 1 1 1 1 1 1 1 1 1 1 1 1 1 1 1 1 1 0 0 0 0 0 0
2 1 0 0 0 1 1 1 1 1 0 0 0 0 1 1 1 1 1 0 0 0 0 1 1 1 1 1 1 2 2 1 1 1 1 1 1 1 1 1 1 1 0 0 0 0 0 0 0
2 1 0 0 0 1 1 1 1 1 1 0 0 0 1 1 1 1 1 0 0 0 1 0 1 1 1 1 1 2 2 1 1 1 1 1 1 1 1 1 1 1 1 0 0 1 0 0 0
1 1 0 0 1 1 0 0 1 1 1 1 0 0 0 1 1 1 1 0 1 1 1 1 1 1 1 1 1 1 1 1 1 1 1 1 1 0 0 0 0 1 1 0 0 0 0 0 0
0 0 0 1 1 1 0 0 1 1 1 1 1 1 1 1 1 1 1 1 1 1 1 1 1 1 1 1 1 1 1 1 1 1 1 0 0 0 0 0 0 0 0 0 0 0 0 0 0
0 0 1 1 1 1 0 1 1 1 1 1 1 1 1 1 1 1 1 1 1 1 1 1 1 1 1 1 1 2 2 1 1 1 0 0 0 0 0 0 0 0 0 0 0 0 0 0 0
0 0 0 1 1 1 1 1 1 1 1 1 1 1 1 1 1 1 1 1 1 1 1 1 1 1 1 1 2 2 2 1 1 0 0 0 0 0 0 0 0 0 0 0 0 0 0 0 0
0 0 0 1 1 1 1 1 1 1 1 1 1 1 1 1 1 1 1 1 1 1 1 1 1 1 1 1 2 2 2 1 1 1 0 0 0 0 0 0 0 0 0 0 0 0 0 0 0
0 0 0 0 1 1 1 1 1 1 1 1 1 1 1 1 1 1 2 2 2 2 1 1 1 1 1 2 2 1 1 1 1 1 0 0 0 0 0 0 0 0 0 0 0 0 0 0 0
0 0 0 0 1 1 1 1 1 1 1 1 1 1 1 1 1 2 2 2 2 2 2 2 2 2 2 2 1 1 1 1 1 1 0 0 0 1 0 0 0 0 0 0 0 0 0 0 0
0 0 0 0 1 1 1 1 1 1 1 1 1 1 1 1 1 2 3 3 4 4 3 3 3 3 3 2 1 1 1 1 1 1 0 0 0 0 0 0 0 0 0 0 0 1 1 0 0
0 0 0 0 1 1 1 1 1 1 1 1 1 1 1 1 1 1 2 4 5 5 5 4 4 3 3 2 1 1 1 1 1 1 0 0 0 0 0 0 0 0 0 0 1 1 0 0 0
0 0 0 0 1 1 1 1 1 1 1 1 1 1 1 1 1 1 2 3 5 6 6 5 5 4 4 3 2 1 1 1 1 1 1 0 1 1 1 0 0 0 0 1 0 0 0 0 0
0 0 0 0 1 1 1 1 1 1 1 1 1 1 1 1 1 1 2 3 5 6 6 6 5 5 4 3 2 2 1 1 1 1 1 1 1 1 1 1 0 1 1 1 1 0 0 0 0
0 0 0 0 1 1 1 1 1 1 1 1 1 1 1 2 2 2 2 4 5 5 5 5 5 5 4 4 3 2 2 1 1 1 1 1 1 1 1 1 1 1 1 1 1 1 1 1 1
0 0 0 0 0 1 1 1 1 1 1 1 1 1 1 2 2 2 4 5 4 4 3 3 4 4 4 3 3 2 2 1 1 1 1 1 1 1 1 1 1 1 1 1 1 1 1 1 1
0 0 0 0 0 0 1 1 1 1 1 2 2 1 2 2 3 3 4 4 3 2 2 2 2 2 3 3 3 3 2 2 1 1 1 1 1 1 1 1 1 1 1 1 1 1 1 1 1
0 0 0 0 0 0 0 1 1 1 1 2 2 2 2 3 3 4 4 3 3 2 2 2 2 2 2 3 4 3 3 2 1 1 1 1 1 1 1 1 1 1 1 1 1 1 1 2 2
0 0 0 0 0 0 0 1 1 2 2 1 2 2 3 4 4 3 3 3 3 3 3 3 3 2 2 3 3 3 3 2 1 1 1 1 1 1 1 1 1 1 1 1 1 1 2 2 2
0 0 0 0 0 0 0 1 1 2 2 2 2 3 4 4 4 3 3 4 4 3 3 3 3 3 3 3 3 4 4 3 2 1 2 1 1 1 1 1 1 1 1 1 1 1 2 2 2
1 0 0 0 0 0 1 1 1 1 2 2 2 3 5 5 4 4 4 4 4 4 3 4 4 4 4 4 3 5 6 4 2 2 2 1 1 1 1 2 2 2 1 1 1 1 2 2 2
1 0 0 0 0 0 1 1 1 1 2 2 2 4 6 6 6 6 6 5 5 4 4 5 5 5 5 5 4 5 4 3 2 2 1 1 1 1 2 2 2 2 1 1 1 1 2 2 2
1 0 0 0 0 0 1 1 1 1 2 2 3 4 6 8 9 9 8 7 5 5 5 6 6 7 7 6 5 4 3 2 2 1 2 2 2 2 2 2 2 2 2 1 1 1 1 1 1
1 0 0 0 0 0 1 1 1 1 2 2 3 4 5 8 10 11 10 8 6 6 6 6 7 8 8 6 5 3 2 2 2 2 2 2 2 2 2 2 2 2 1 1 1 1 1 1 1
Wind_Speed
9 7 3 1 3 5 5 5 7 7 7 9 11 10 9 8 5 6 3 6 6 4 3 7 11 12 12 13 13 14 14 14 14 15 15 16 15 15 16 17 16 16 16 16 16 15 15 15 14
6 5 2 2 5 4 4 6 10 11 10 9 10 11 9 8 7 7 4 7 7 6 4 6 11 11 12 13 13 13 14 13 14 14 14 15 15 15 15 16 16 16 16 15 15 15 14 14 13
5 3 2 3 3 4 5 7 12 13 10 8 6 7 6 5 6 5 7 9 6 5 4 7 11 11 13 13 12 13 13 13 14 14 14 14 14 14 14 14 14 14 14 14 13 13 13 12 11
2 2 3 5 6 4 7 9 12 13 10 9 8 7 4 5 5 8 11 10 8 5 5 7 11 11 12 12 12 12 13 13 13 13 13 13 14 13 13 13 13 13 13 12 12 11 11 10 9
2 3 5 5 6 6 7 10 11 11 7 9 10 8 4 4 9 11 10 10 9 6 5 7 12 12 12 12 12 12 12 12 12 12 12 12 13 12 12 12 12 11 11 10 10 9 9 9 8
2 3 4 4 6 6 7 11 14 14 13 10 10 7 3 5 9 9 10 9 9 8 6 6 11 12 12 12 11 11 11 11 11 11 11 11 11 11 11 11 10 10 9 9 8 7 7 7 7
3 3 3 5 5 5 7 8 11 12 11 7 8 6 3 4 7 9 9 9 8 8 6 5 5 7 10 11 11 11 10 10 10 10 10 10 10 10 10 9 9 9 8 8 7 6 5 5 5
4 4 3 3 6 5 7 7 10 12 9 10 7 7 5 6 8 9 9 8 7 6 6 5 4 4 4 5 10 10 9 9 8 8 8 8 8 8 8 7 7 7 7 6 6 5 4 3 3
3 4 3 5 6 6 9 10 7 8 11 6 4 6 8 9 10 10 8 6 6 7 5 5 5 4 3 4 6 7 8 7 6 5 7 6 3 3 4 5 6 6 6 5 5 4 3 2 2
4 4 5 6 7 8 10 11 8 8 10 8 9 9 10 9 10 10 9 8 7 7 5 4 5 4 4 4 3 2 2 3 2 2 2 2 2 2 3 4 4 4 4 4 3 3 3 2 1
5 6 5 5 8 10 9 8 6 10 9 12 13 13 11 10 9 9 8 8 7 7 6 5 5 4 4 3 3 1 1 2 1 2 2 2 2 1 1 1 1 1 1 0 0 1 1 1 1
5 5 7 7 8 10 9 7 7 8 10 13 14 13 11 10 9 9 8 7 7 7 6 5 5 4 3 3 3 2 2 2 2 2 2 2 2 1 1 0 0 0 0 0 0 0 1 1 2
6 5 6 8 9 9 11 9 9 9 13 13 14 13 11 10 9 8 8 8 7 7 6 5 5 4 4 3 2 3 2 2 2 2 2 3 2 2 1 1 0 1 1 1 1 1 1 1 1
4 6 7 9 10 9 13 10 8 11 13 14 13 11 10 11 10 8 8 7 7 7 6 5 5 4 4 3 3 2 2 2 2 2 2 2 2 2 1 1 0 0 1 1 1 1 1 1 1
6 7 4 4 7 8 12 7 7 12 13 12 12 11 10 9 9 10 9 8 8 7 7 6 6 4 5 4 3 3 2 2 2 1 2 2 2 2 2 1 1 0 0 0 0 0 1 1 1
5 5 2 3 5 7 10 6 8 11 13 11 11 11 10 9 9 9 9 8 8 8 7 6 6 5 4 4 3 2 2 2 2 1 1 2 2 3 2 1 0 0 0 1 1 1 1 1 1
3 1 2 3 5 6 6 6 10 11 13 11 11 11 11 9 9 9 10 9 8 8 7 6 5 5 4 3 3 3 2 2 2 1 1 1 2 2 2 1 0 1 1 1 0 1 1 1 0
3 3 2 4 5 6 6 7 11 11 11 12 11 11 11 11 11 10 10 10 8 8 7 6 5 5 4 3 2 2 2 1 1 1 1 1 1 2 2 1 0 1 1 1 1 1 1 1 0
5 4 5 5 6 6 7 9 12 11 10 10 10 11 11 11 10 10 10 10 9 7 6 6 5 5 4 3 2 2 1 1 1 1 2 2 2 2 2 1 1 1 1 1 1 1 1 1 1
3 3 4 2 4 5 6 7 10 12 13 13 13 13 13 11 9 10 10 10 9 9 7 7 6 5 5 3 3 2 2 2 2 1 1 2 2 2 2 2 1 1 1 1 1 1 1 0 1
4 6 6 5 2 4 6 1 5 7 7 8 11 11 12 15 14 12 11 10 10 10 9 8 7 6 5 4 3 2 1 1 1 0 1 1 2 3 2 2 2 2 2 1 1 1 2 0 1
4 5 6 5 4 1 4 2 5 7 6 8 10 10 12 13 13 12 12 11 12 11 10 8 8 6 5 5 4 4 3 2 3 2 2 1 2 2 2 2 2 2 1 1 1 1 1 2 0
4 2 4 4 4 2 1 3 5 3 6 10 11 11 12 13 14 14 14 13 12 11 10 8 8 7 6 5 5 4 3 2 2 1 1 1 1 2 2 2 2 2 1 1 1 0 1 1 1
3 3 5 5 4 0 3 3 4 5 10 10 10 11 11 11 12 12 12 11 9 9 9 9 8 7 6 6 5 5 5 4 3 2 2 2 1 1 2 2 2 2 1 1 1 1 1 1 1
3 5 4 5 4 4 2 2 6 8 9 12 12 11 11 11 11 11 11 11 10 10 10 9 9 7 7 7 6 6 5 5 5 4 3 3 2 2 2 2 2 2 2 2 2 1 1 1 1
2 8 8 5 4 4 2 3 6 6 7 8 8 9 10 11 12 12 14 13 13 13 12 10 10 8 8 7 6 5 5 4 3 4 3 3 3 3 3 3 3 3 2 2 1 1 1 1 1
3 3 8 8 2 0 3 3 5 1 3 5 6 7 10 12 13 13 13 13 12 13 13 12 11 9 8 7 6 5 5 4 4 3 3 3 3 3 3 3 3 3 2 2 2 1 1 1 1
7 7 6 6 5 2 3 2 4 3 4 5 7 8 9 9 10 11 12 13 12 12 11 11 11 10 9 8 7 6 5 5 5 4 4 3 3 2 2 2 2 2 2 2 2 1 1 1 1
1 3 5 5 6 7 3 6 7 8 8 8 8 9 9 10 9 10 10 11 11 10 10 10 10 9 8 8 7 6 5 6 5 4 4 4 3 3 3 3 3 3 2 2 2 2 2 2 2
6 6 7 6 4 5 5 7 5 7 7 8 8 9 10 10 10 9 10 10 10 10 9 9 9 9 9 8 7 7 6 5 5 5 4 4 4 3 4 3 3 3 3 2 3 3 2 2 2
Wind_Direction
174 173 163 136 55 58 77 93 102 85 65 61 73 79 77 64 90 122 164 132 128 123 117 108 103 98 96 95 95 94 93 91 93 98 98 98 99 102 104 107 108 110 110 110 112 113 114 116 118
169 175 160 66 81 83 80 99 94 98 118 104 79 78 72 68 82 113 133 140 132 129 128 116 110 105 103 101 99 98 96 95 98 102 102 102 101 103 107 108 109 110 111 111 112 114 114 116 119
180 180 102 70 87 115 110 105 106 107 106 94 83 63 66 97 110 127 147 145 133 128 131 124 115 110 111 108 105 103 101 99 100 103 104 105 104 106 107 109 110 110 111 113 114 116 117 118 120
147 83 51 73 90 103 118 121 114 104 82 74 89 73 64 99 120 135 142 143 136 134 134 130 119 113 113 112 110 107 105 103 103 103 105 108 110 111 111 110 110 111 114 116 117 118 118 118 118
81 71 63 73 94 105 112 116 110 103 89 87 92 95 77 83 117 130 140 139 137 136 130 128 123 119 117 116 112 109 108 108 108 108 110 111 112 112 113 115 115 116 115 116 119 120 120 119 118
60 71 84 97 102 106 110 110 105 102 110 106 101 102 101 125 126 136 138 137 136 135 131 129 126 123 122 121 115 113 112 111 112 112 114 115 118 120 120 121 124 124 121 120 123 126 127 126 125
120 102 125 126 115 109 117 118 116 125 126 124 125 105 126 138 137 138 135 132 130 132 133 127 128 127 126 124 119 116 116 113 115 116 117 119 121 123 125 128 131 132 132 135 138 141 142 141 137
160 111 106 108 119 121 124 110 121 127 121 132 128 127 156 165 140 131 127 127 129 130 134 136 128 124 128 126 127 128 124 122 122 122 122 124 127 130 131 132 138 141 143 149 155 159 163 157 153
128 94 130 148 137 132 119 107 106 102 113 122 109 129 150 144 129 122 121 120 129 135 138 141 139 140 145 141 139 134 134 131 128 123 126 117 107 114 129 139 149 153 154 161 168 174 184 183 184
126 128 174 165 146 136 126 126 127 109 109 106 104 117 131 130 128 130 134 138 139 145 150 147 144 149 154 148 132 131 134 123 118 116 114 113 121 135 138 143 155 160 162 168 176 190 205 203 192
135 145 147 132 132 127 126 126 112 119 126 141 141 144 145 138 135 138 141 144 146 149 146 149 148 149 152 139 138 133 121 122 120 122 118 114 111 112 108 112 144 148 160 181 211 200 207 187 187
122 139 140 141 129 123 127 123 111 125 150 152 146 148 146 145 148 149 145 145 142 140 141 145 147 142 139 131 137 143 144 140 136 141 140 121 109 104 109 105 155 167 181 172 208 206 230 218 205
108 126 131 131 121 120 114 116 115 125 138 141 141 144 148 148 149 153 149 146 140 140 139 144 140 135 134 119 128 134 138 144 140 137 133 127 125 135 142 135 124 201 193 182 203 202 199 185 167
139 121 124 127 122 124 119 117 110 139 143 145 148 149 152 152 150 145 145 146 147 145 148 145 140 138 126 122 126 133 140 139 130 139 145 132 132 132 128 122 102 252 230 203 187 171 150 149 145
98 101 92 132 126 129 112 99 136 152 150 152 156 157 156 156 152 155 160 157 153 149 151 150 147 139 131 133 139 139 142 132 132 150 148 128 128 130 131 123 114 270 267 165 83 67 81 118 121
61 85 132 225 145 144 115 144 168 161 157 162 167 165 163 165 162 165 165 159 155 149 152 159 150 145 147 144 137 137 138 132 139 144 136 132 135 128 118 111 128 188 42 54 95 74 72 71 114
34 120 197 226 190 149 124 166 180 176 165 169 172 170 168 169 170 173 170 163 159 156 155 156 149 149 152 145 136 136 138 140 151 144 145 149 130 119 120 115 125 121 81 47 91 75 99 92 82
208 188 204 203 205 154 148 171 174 181 176 175 175 174 172 174 180 179 172 165 161 159 155 155 152 153 149 133 116 101 106 138 149 157 176 154 132 128 122 112 90 95 89 51 57 78 64 108 150
178 186 213 217 190 158 168 166 178 180 181 178 179 182 179 182 181 175 171 167 160 159 156 157 158 162 150 138 142 141 157 177 169 179 186 166 151 141 130 132 100 113 120 141 112 91 67 37 75
185 191 217 229 188 146 164 181 185 183 188 188 185 185 180 178 177 175 172 168 165 167 166 165 169 169 164 161 160 164 165 180 184 190 182 179 155 152 158 161 163 148 127 91 88 92 95 21 102
242 193 195 182 130 99 119 160 204 202 196 194 193 187 180 180 181 179 175 175 171 172 174 174 176 173 174 165 142 131 90 57 57 211 217 208 177 170 171 175 157 149 153 170 195 151 133 164 288
252 219 177 153 120 180 138 175 250 208 196 202 199 190 187 185 181 180 177 177 177 179 175 172 173 172 174 165 156 159 165 180 206 202 205 210 192 182 178 169 156 159 161 177 222 177 153 144 228
218 157 130 139 132 90 52 122 275 174 198 213 204 194 189 188 183 183 181 180 179 177 175 174 170 172 172 167 169 169 174 187 191 181 182 194 205 199 186 177 158 163 170 183 210 193 169 169 177
159 62 47 59 78 58 239 153 260 205 204 204 201 195 188 186 185 185 183 175 174 175 176 175 172 177 175 172 171 174 179 180 171 186 191 201 216 227 214 188 184 185 186 201 208 207 198 207 198
81 94 40 9 17 250 252 155 237 223 201 193 191 191 185 185 179 181 180 175 175 178 180 179 177 180 181 179 182 183 182 180 184 192 191 188 200 216 226 208 203 202 205 205 196 197 221 214 211
192 140 154 180 211 265 335 217 250 225 191 180 176 177 176 182 182 185 185 183 184 183 184 182 183 184 183 185 191 189 181 180 190 193 188 192 199 207 209 208 209 210 205 201 191 196 231 216 220
159 165 162 135 146 32 287 280 308 236 149 158 155 165 178 180 183 188 186 184 186 185 185 183 183 184 186 187 185 187 184 179 190 195 189 192 195 199 203 205 202 205 201 197 190 199 237 214 226
160 153 106 117 141 226 291 266 228 219 195 177 165 175 182 181 179 185 186 185 187 187 185 183 183 185 185 185 186 185 187 187 191 187 195 196 197 196 185 204 205 206 207 201 192 207 229 212 242
138 127 124 126 151 155 209 263 223 193 190 182 182 182 177 178 184 185 185 187 185 182 181 182 186 186 187 188 187 185 185 192 192 196 204 201 198 194 196 203 203 208 211 204 191 212 218 219 253
161 163 146 151 195 161 163 256 245 189 185 178 182 181 178 179 184 183 181 180 180 180 180 183 185 187 190 187 183 186 186 186 191 201 204 197 197 197 200 199 197 204 208 202 191 211 222 216 230